#timestamp,LO_Frequency,Hit,StdDev 
1550804415.4,286046998.0,N
1550804435.2,286046998.1,N
1550804455.1,286046999.9,N
1550804456.0,286046999.9,N
1550804475.8,286047004.7,N
1550804495.6,286047002.8,N
1550804515.5,286047004.8,N
1550804535.3,286047009.8,N
1550804555.2,286047011.8,N
1550804575.9,286047010.1,N
1550804595.7,286047006.5,N
1550804615.6,286047006.8,N
1550804635.4,286047002.6,N
1550804655.2,286046997.4,N
1550804675.1,286047005.5,N
1550804676.0,286047005.5,N
1550804695.8,286047007.5,N
1550804715.7,286047008.5,N
1550804735.5,286047002.9,N
1550804755.3,286046997.1,N
1550804775.2,286046995.6,N
1550804795.0,286047002.6,N
1550804795.9,286047002.6,N
1550804815.8,286047003.2,N
1550804835.6,286047004.2,N
1550804855.4,286047002.4,N
1550804875.3,286047005.5,N
1550804895.1,286046996.7,N
1550804915.8,286046999.5,N
1550804935.7,286047001.3,N
1550804955.5,286046996.7,N
1550804975.4,286046993.1,N
1550804995.2,286046988.5,N
1550805015.0,286046990.2,N
1550805015.9,286046990.2,N
1550805035.8,286046996.2,N
1550805055.6,286046996.8,N
1550805075.5,286046992.9,N
1550805095.3,286046993.8,N
1550805115.1,286046990.4,N
1550805135.9,286046997.8,N
1550805155.7,286046995.2,N
1550805175.5,286046993.9,N
1550805195.4,286046998.4,N
1550805215.2,286047002.8,N
1550805235.1,286046996.8,N
1550805236.0,286046996.8,N
1550805255.8,286047001.6,N
1550805275.6,286047000.0,N
1550805295.5,286046998.0,N
1550805315.3,286046993.4,N
1550805335.2,286046995.6,N
1550805355.9,286046998.9,N
1550805375.7,286046997.0,N
1550805395.6,286046995.8,N
1550805415.4,286046992.6,N
1550805435.3,286046986.5,Y
1550805455.1,286046997.0,P
1550805456.0,286046997.0,P
1550805475.8,286047000.2,N
1550805495.7,286047004.4,N
1550805515.5,286046997.0,N
1550805535.3,286046997.5,N
1550805555.2,286046992.9,N
1550805575.0,286046988.2,Y
1550805575.9,286046988.2,P
1550805595.8,286046995.4,N
1550805615.6,286046999.1,N
1550805635.4,286046998.7,N
1550805655.3,286047002.1,N
1550805675.1,286047003.4,N
1550805695.9,286046998.5,N
1550805715.7,286046996.5,N
1550805735.5,286046990.9,N
1550805755.4,286046993.4,N
1550805775.2,286046999.6,N
1550805795.0,286046990.1,N
1550805796.0,286046990.1,N
1550805815.8,286046991.1,N
1550805835.6,286046993.9,N
1550805855.5,286046999.6,N
1550805875.3,286046998.0,N
1550805895.1,286046996.0,N
1550805915.9,286046996.6,N
1550805935.7,286046996.7,N
1550805955.6,286046999.8,N
1550805975.4,286046998.2,N
1550805995.2,286047000.4,N
1550806015.1,286047001.1,N
1550806016.0,286047001.1,N
1550806035.8,286047005.2,N
1550806055.6,286047010.6,N
1550806075.5,286047009.6,N
1550806095.3,286047013.7,N
1550806115.2,286047009.6,N
1550806135.0,286047004.5,N
1550806135.9,286047004.5,N
1550806155.7,286047006.8,N
1550806175.6,286047011.3,N
1550806195.4,286047008.1,N
1550806215.3,286047008.4,N
1550806235.1,286047009.3,N
1550806236.0,286047009.3,N
1550806255.8,286047007.5,N
1550806275.8,286047000.2,N
1550806295.7,286046995.5,N
1550806315.5,286046993.6,N
1550806335.4,286046993.3,N
1550806355.2,286046999.6,N
1550806375.0,286046998.9,N
1550806375.9,286046998.9,N
1550806395.8,286046994.6,N
1550806415.6,286046997.6,N
1550806435.4,286047002.7,N
1550806455.3,286046999.7,N
1550806475.1,286047000.8,N
1550806495.9,286047003.5,N
1550806515.7,286046997.0,N
1550806535.5,286046999.9,N
1550806555.4,286047000.7,N
1550806575.2,286047001.0,N
1550806595.1,286046998.2,N
1550806596.0,286046998.2,N
1550806615.8,286046999.3,N
1550806635.6,286046997.0,N
1550806655.5,286047000.0,N
1550806675.3,286046999.4,N
1550806695.2,286046997.5,N
1550806715.9,286046996.7,N
1550806735.7,286046998.9,N
1550806755.6,286047000.3,N
1550806775.4,286047002.4,N
1550806795.2,286046998.1,N
1550806815.1,286047001.2,N
1550806816.0,286047001.2,N
1550806835.8,286047001.5,N
1550806855.7,286047000.8,N
1550806875.5,286047002.2,N
1550806895.3,286046998.2,N
1550806915.2,286047005.9,N
1550806935.0,286047005.3,N
1550806935.9,286047005.3,N
1550806955.7,286047005.2,N
1550806975.6,286046997.1,N
1550806995.4,286046999.2,N
1550807015.3,286047004.1,N
1550807035.1,286047003.4,N
1550807036.0,286047003.4,N
1550807055.8,286047006.6,N
1550807075.7,286047011.4,Y
1550807095.5,286047008.1,P
1550807115.4,286047005.2,N
1550807135.2,286047002.4,N
1550807155.0,286047001.4,N
1550807155.9,286047001.4,N
1550807175.8,286047001.9,N
1550807195.6,286046998.5,N
1550807215.4,286046993.3,N
1550807235.3,286046991.7,N
1550807255.1,286046995.1,N
1550807275.9,286046989.4,N
1550807295.7,286046993.6,N
1550807315.5,286046994.3,N
1550807335.4,286046996.1,N
1550807355.2,286046995.7,N
1550807375.0,286046991.9,N
1550807376.0,286046991.9,N
1550807395.8,286046992.8,N
1550807415.6,286046989.1,N
1550807435.5,286046992.8,N
1550807455.3,286046992.0,N
1550807475.2,286046994.4,N
1550807495.9,286046988.8,N
1550807515.7,286046994.8,N
1550807535.6,286046999.3,N
1550807555.4,286047002.1,N
1550807575.2,286047004.4,N
1550807595.1,286046998.5,N
1550807596.0,286046998.5,N
1550807615.8,286046996.6,N
1550807635.7,286047002.6,N
1550807655.5,286046999.6,N
1550807675.3,286046996.2,N
1550807695.2,286046996.5,N
1550807715.0,286046998.4,N
1550807715.9,286046998.4,N
1550807735.8,286046998.3,N
1550807755.6,286046998.1,N
1550807775.5,286046993.3,N
1550807795.3,286046996.3,N
1550807815.1,286046995.0,N
1550807835.9,286046993.0,N
1550807855.7,286046995.8,N
1550807875.6,286046995.1,N
1550807895.4,286046989.4,N
1550807915.2,286046991.6,N
1550807935.1,286046989.1,N
1550807936.0,286046989.1,N
1550807955.8,286046994.6,N
1550807975.7,286046990.9,N
1550807995.5,286046990.4,N
